Regional Weather Roundup
Issued by NWS Charleston, SC

Current Version | Previous Version | Graphics & Text | Print | Product List | Glossary On
Versions: 1 2 3 4 5 6 7 8 9 10 11 12 13 14 15 16 17 18 19 20 21 22 23 24 25 26 27 28 29 30 31 32 33 34 35 36 37 38 39 40 41 42 43 44 45 46 47 48 49 50
042
ASUS42 KCHS 250946
RWRCHS

REGIONAL WEATHER ROUNDUP
NATIONAL WEATHER SERVICE CHARLESTON SC
500 AM EDT MON SEP 25 2017

NOTE: "FAIR" INDICATES FEW OR NO CLOUDS BELOW 12,000 FEET WITH NO
SIGNIFICANT WEATHER AND/OR OBSTRUCTIONS TO VISIBILITY.

NOT ALL STATIONS ARE QUALITY CONTROLLED. USE DATA WITH CAUTION...
ESPECIALLY DEWPOINT OBSERVATIONS.

SCZ027-030-031-034>040-042>050-251000-
...SOUTHEAST SOUTH CAROLINA...

CITY           SKY/WX    TMP DP  RH WIND       PRES   REMARKS
N CHARLESTON   CLOUDY    71  66  84 NE10      29.90S
WATERFRONT PRK   N/A     76  69  79 N12       29.73S
JOHNS ISLAND   FAIR      73  68  83 N6        29.90S
PINOPOLIS        N/A     75  68  78 NE12      29.84R
MONCKS CORNER  FAIR      72  64  78 N6        29.91S
SUMMERVILLE    FAIR      68  64  88 CALM      29.92S
BEAUFORT MCAS  PTCLDY    73  71  93 NW5       29.91R
BEAUFORT ARPT  FAIR      72  68  88 N7        29.91R
HILTON HEAD IS PTCLDY    75  70  83 N9        29.91S
WALTERBORO     CLOUDY    68  66  94 N5        29.93S
ALLENDALE      NOT AVBL

...SOUTHERN MIDLANDS AND PEE DEE...

CITY           SKY/WX    TMP DP  RH WIND       PRES   REMARKS
GEORGETOWN     FAIR      68  68 100 N5        29.91R
KINGSTREE      FAIR      66  63  88 CALM      29.93R
ORANGEBURG     CLOUDY    71  63  75 NE7       29.94S
BARNWELL       FAIR      70  68  94 N5        29.95S
AIKEN          FAIR      64  63  94 CALM      30.00S
MANNING        FAIR      68  64  88 MISG      29.93S
COLUMBIA       CLOUDY    72  64  76 NE6       29.96R
SUMTER         CLOUDY    70  61  73 NE7       29.93R
FLORENCE       CLOUDY    68  62  81 N8        29.94S
MYRTLE BEACH   MOCLDY    70  65  84 NE9       29.90S
N MYRTLE BEACH PTCLDY    70  66  87 NE12      29.89S

$$

GAZ063-065-086>088-099>101-113>116-118-119-134>141-150-251000-
...SOUTHEAST GEORGIA...

CITY           SKY/WX    TMP DP  RH WIND       PRES   REMARKS
SAVANNAH ARPT  MOCLDY    72  69  90 NW5       29.92R
HUNTER AAF     PTCLDY    71  68  90 CALM      29.89R
FORT STEWART   PTCLDY    72  67  87 N7        29.90R
STATESBORO     PTCLDY    69  66  92 CALM      29.95R
SYLVANIA       PTSUNNY   68  68 100 CALM      29.95R
CLAXTON        FAIR      70  69  96 CALM      29.94S

...CSRA...CENTRAL AND FAR SOUTHEAST GEORGIA...

CITY           SKY/WX    TMP DP  RH WIND       PRES   REMARKS
THOMSON        PTCLDY    65  64  96 CALM      30.03S
AUGUSTA-BUSH   MOCLDY    70  67  90 CALM      29.95S
AUGUSTA-DANIEL MOCLDY    71  66  84 N10       29.97S
SWAINSBORO     FAIR      72  70  94 NE7       29.96S
VIDALIA        CLEAR     70  68  94 N3        29.95S
EASTMAN        FAIR      67  67 100 CALM      29.99R FOG
HAZLEHURST     FAIR      68  66  93 CALM      29.94R
ALMA           CLEAR     68  66  93 CALM      29.94R
WAYCROSS       CLEAR     69  66  91 CALM      29.94R
JESUP          NOT AVBL
BAXLEY         FAIR      66  66 100 CALM      29.94S
BRUNSWICK      PTCLDY    70  68  94 CALM      29.92R
SAINT SIMONS   PTCLDY    74  72  93 NW3       29.89S

$$

SCZ027-028-034-036>038-045-046-048>050-GAZ119-141-251000-
...LAKE AND SUPPLEMENTAL COASTAL OBSERVATIONS...

STATION/POSITION TIME  TEMP    WIND        PRES    WAVE   SWELL
                       AIR SEA DIR/SP/G            HT/PER HT/PER/DIR
                 (UTC) (F)     (DEG/KT/KT) (MB)    (FT/S) (FT/S/D)
WINYAH BAY       0830   72      10/  6     1012.0S
LAKE MURRAY      0920   71      CALM  /  4 1014.2S
ACE BASIN NERRS  0845   72     340/  1     1012.0S
FORT PULASKI     0900   73 80  350/  6/  8 1013.2
SAPELO ISLAND    0900   74        CALM     1013.0

$$

ANZ835-935-AMZ111-154-330-350-352-354-370-450-454-472-251000-
...C-MAN AND BUOY OBSERVATIONS...

STATION/POSITION TIME  TEMP    WIND        PRES    WAVE   SWELL
                       AIR SEA DIR/SP/G            HT/PER HT/PER/DIR
                 (UTC) (F)     (DEG/KT/KT) (MB)    (FT/S) (FT/S/D)
BUOY 41004       0910   78 80   30/ 17/ 21 1010.5
BUOY 41008       0850   80 80   10/ 12/ 14 1011.7R   5/ 8   3/ 70/ 8
FOLLY BEACH CMAN 0900   75     360/ 11/ 14 1012.7F
CAPERS NEARSHORE 0908   73 80   10/ 14/ 17 1011.6R
FRIPP NEARSHORE  0908   77      20/ 14/ 17 1017.0F


STATION/POSITION TIME  TEMP    WIND        PRES    WAVE   SWELL
                       AIR SEA DIR/SP/G            HT/PER HT/PER/DIR
                 (UTC) (F)     (DEG/KT/KT) (MB)    (FT/S) (FT/S/D)
5E ST. MARYS GA  0900      81                N/A     6/13   3/120/13
FRYING PAN BUOY  0910   78 82   30/ 21/ 29 1010.1
BUOY 41025       0850   75 78   30/ 21/ 25 1011.0F  11/15  10/150/15
CAPE LOOKOUT NC  0900   74      30/ 17/ 20 1011.5S
BUOY 41002       0850   80 80   20/ 35/ 43  997.1F  23/10  10/130/14
BUOY 41010       0910           10/ 14/ 17 1009.1
ST AUGUSTINE FL  0900   80 81   10/ 15/ 17 1011.9R


$$




USA.gov is the U.S. government's official web portal to all federal, state and local government web resources and services.